TimeEDT,TemperatureF,Dew PointF,Humidity,Sea Level PressureIn,VisibilityMPH,Wind Direction,Wind SpeedMPH,Gust SpeedMPH,PrecipitationIn,Events,Conditions,WindDirDegrees,DateUTC
12:51 AM,57.9,57.0,97,29.67,2.5,Calm,Calm,-,N/A,,Mostly Cloudy,0,2012-10-20 04:51:00
12:56 AM,57.2,57.2,100,29.67,0.8,Calm,Calm,-,N/A,,Mostly Cloudy,0,2012-10-20 04:56:00
1:09 AM,55.4,55.4,100,29.68,1.0,West,3.5,-,N/A,,Mostly Cloudy,260,2012-10-20 05:09:00
1:22 AM,57.2,55.4,94,29.68,1.5,WSW,3.5,-,N/A,,Scattered Clouds,250,2012-10-20 05:22:00
1:32 AM,57.2,57.2,100,29.68,3.0,WSW,3.5,-,N/A,,Partly Cloudy,240,2012-10-20 05:32:00
1:51 AM,55.9,55.0,97,29.67,8.0,Calm,Calm,-,N/A,,Clear,0,2012-10-20 05:51:00
2:11 AM,53.6,53.6,100,29.67,0.8,Calm,Calm,-,N/A,,Clear,0,2012-10-20 06:11:00
2:27 AM,57.2,57.2,100,29.66,2.5,Calm,Calm,-,N/A,,Clear,0,2012-10-20 06:27:00
2:31 AM,55.4,55.4,100,29.66,1.0,Calm,Calm,-,N/A,,Mist,0,2012-10-20 06:31:00
2:35 AM,53.6,53.6,100,29.66,0.2,NNW,3.5,-,N/A,Fog,Fog,330,2012-10-20 06:35:00
2:51 AM,53.1,53.1,100,29.66,0.2,Calm,Calm,-,N/A,Fog,Fog,0,2012-10-20 06:51:00
2:58 AM,53.6,53.6,100,29.66,0.2,Calm,Calm,-,N/A,Fog,Fog,0,2012-10-20 06:58:00
3:51 AM,52.0,51.1,97,29.67,0.2,Calm,Calm,-,N/A,Fog,Fog,0,2012-10-20 07:51:00
4:06 AM,53.6,51.8,94,29.67,0.2,NW,3.5,-,N/A,Fog,Fog,310,2012-10-20 08:06:00
4:38 AM,53.6,53.6,100,29.68,0.2,Calm,Calm,-,N/A,Fog,Fog,0,2012-10-20 08:38:00
4:51 AM,52.0,52.0,100,29.68,0.2,Calm,Calm,-,N/A,Fog,Fog,0,2012-10-20 08:51:00
5:51 AM,53.1,53.1,100,29.70,0.2,West,4.6,-,N/A,Fog,Fog,280,2012-10-20 09:51:00
6:18 AM,51.8,51.8,100,29.71,1.2,Calm,Calm,-,N/A,,Mostly Cloudy,0,2012-10-20 10:18:00
6:33 AM,51.8,51.8,100,29.71,7.0,Calm,Calm,-,N/A,,Clear,0,2012-10-20 10:33:00
6:51 AM,50.0,48.9,96,29.71,0.8,Calm,Calm,-,N/A,,Clear,0,2012-10-20 10:51:00
6:57 AM,48.2,48.2,100,29.71,0.2,Calm,Calm,-,N/A,Fog,Fog,0,2012-10-20 10:57:00
7:15 AM,48.2,48.2,100,29.72,6.0,WSW,4.6,-,N/A,,Partly Cloudy,250,2012-10-20 11:15:00
7:51 AM,46.9,46.9,100,29.72,0.8,SW,4.6,-,N/A,,Clear,230,2012-10-20 11:51:00
8:02 AM,48.2,48.2,100,29.72,10.0,SW,3.5,-,N/A,,Clear,220,2012-10-20 12:02:00
8:51 AM,53.1,51.1,93,29.73,10.0,SW,4.6,-,N/A,,Clear,230,2012-10-20 12:51:00
9:51 AM,57.0,48.9,74,29.75,10.0,West,8.1,-,N/A,,Overcast,260,2012-10-20 13:51:00
10:51 AM,57.9,46.0,65,29.76,10.0,WSW,10.4,-,N/A,,Overcast,250,2012-10-20 14:51:00
11:51 AM,57.9,45.0,62,29.77,10.0,West,12.7,18.4,N/A,,Overcast,270,2012-10-20 15:51:00
12:51 PM,59.0,46.0,62,29.75,10.0,West,9.2,-,N/A,,Overcast,270,2012-10-20 16:51:00
1:51 PM,60.1,44.1,55,29.73,10.0,WNW,11.5,17.3,N/A,,Clear,290,2012-10-20 17:51:00
2:51 PM,61.0,43.0,52,29.73,10.0,West,11.5,19.6,N/A,,Clear,260,2012-10-20 18:51:00
3:51 PM,60.1,41.0,49,29.75,10.0,West,11.5,17.3,N/A,,Mostly Cloudy,270,2012-10-20 19:51:00
4:51 PM,60.1,41.0,49,29.77,10.0,West,11.5,20.7,N/A,,Mostly Cloudy,270,2012-10-20 20:51:00
5:51 PM,57.0,43.0,59,29.80,10.0,West,4.6,-,N/A,,Mostly Cloudy,260,2012-10-20 21:51:00
6:51 PM,50.0,39.9,68,29.81,10.0,WSW,5.8,-,N/A,,Clear,240,2012-10-20 22:51:00
7:51 PM,48.0,39.0,71,29.82,10.0,SW,5.8,-,N/A,,Clear,220,2012-10-20 23:51:00
8:51 PM,51.1,41.0,68,29.83,10.0,Calm,Calm,-,N/A,,Partly Cloudy,0,2012-10-21 00:51:00
9:51 PM,48.0,41.0,77,29.86,10.0,WSW,3.5,-,N/A,,Mostly Cloudy,240,2012-10-21 01:51:00
10:51 PM,46.9,39.9,77,29.87,10.0,Calm,Calm,-,N/A,,Partly Cloudy,0,2012-10-21 02:51:00
11:51 PM,45.0,39.0,80,29.88,10.0,Calm,Calm,-,N/A,,Clear,0,2012-10-21 03:51:00